This is the latest recevied weather packets stored in our database for station/object JE6MIQ-13. If no packets are shown the sender has not sent any weather packets the latest 10 day(s).
| Time | Temp. | Humidity | Pressure | Rain* | Wind** | Luminosity | Snow |
|---|---|---|---|---|---|---|---|
| 1777984424 | 15° C | 31% | 1018.9 hPa | 0 mm | - | - | - |
| 1777983824 | 15° C | 30% | 1018.9 hPa | 0 mm | - | - | - |
| 1777983225 | 15.56° C | 30% | 1018.9 hPa | 0 mm | - | - | - |
| 1777982625 | 15.56° C | 31% | 1018.9 hPa | 0 mm | - | - | - |
| 1777982025 | 15.56° C | 30% | 1018.6 hPa | 0 mm | - | - | - |
| 1777981425 | 16.11° C | 30% | 1018.6 hPa | 0 mm | - | - | - |
| 1777980825 | 16.11° C | 28% | 1018.8 hPa | 0 mm | - | - | - |
| 1777980225 | 16.67° C | 26% | 1018.7 hPa | 0 mm | - | - | - |
| 1777979625 | 16.67° C | 29% | 1018.7 hPa | 0 mm | - | - | - |
| 1777979024 | 17.22° C | 29% | 1018.8 hPa | 0 mm | - | - | - |
| 1777978424 | 17.78° C | 29% | 1018.9 hPa | 0 mm | - | - | - |
| 1777977825 | 17.78° C | 29% | 1018.9 hPa | 0 mm | - | - | - |
| 1777977223 | 17.78° C | 29% | 1018.7 hPa | 0 mm | - | - | - |
| 1777976623 | 17.78° C | 29% | 1018.5 hPa | 0 mm | - | - | - |
| 1777976024 | 18.33° C | 29% | 1018.5 hPa | 0 mm | - | - | - |
| 1777975423 | 18.33° C | 29% | 1018.2 hPa | 0 mm | - | - | - |
| 1777974824 | 18.89° C | 29% | 1017.6 hPa | 0 mm | - | - | - |
| 1777974155 | 19.44° C | 29% | 1017.6 hPa | 0 mm | - | - | - |
| 1777973555 | 20° C | 29% | 1016.4 hPa | 0 mm | - | - | - |
| 1777972956 | 20.56° C | 29% | 1016.3 hPa | 0 mm | - | - | - |
| 1777972355 | 20° C | 29% | 1016.3 hPa | 0 mm | - | - | - |
| 1777971755 | 20.56° C | 29% | 1016.3 hPa | 0 mm | - | - | - |
| 1777971156 | 20.56° C | 29% | 1016.3 hPa | 0 mm | - | - | - |
| 1777970554 | 21.11° C | 29% | 1016.3 hPa | 0 mm | - | - | - |
| 1777969955 | 21.11° C | 29% | 1016.1 hPa | 0 mm | - | - | - |
* Rain latest hour (hover to see other rain measurements)
** Current wind speed in m/s (hover to see current wind gust speed)